Weather Roundup
Issued by NWS

Home | Current Version | Previous Version | Graphics & Text | Print | Product List | Glossary Off
Versions: 1 2 3 4 5 6 7 8 9 10 11 12 13 14 15 16 17 18 19 20 21 22 23 24 25 26 27 28 29 30 31 32 33 34 35 36 37 38 39 40 41 42 43 44 45 46 47 48 49 50

621
NZUS93 KARX 241359
HRRWXR

CURRENT HOURLY OBSERVATIONS ACROSS
MUCH OF THE UPPER MISSISSIPPI VALLEY
NATIONAL WEATHER SERVICE LA CROSSE WI
900 AM CDT MON JUL 24 2017


...SOUTHEAST MINNESOTA...


CITY           SKY/WX    TMP DP  RH WIND       PRES   REMARKS
ROCHESTER      MOSUNNY   63  59  87 E5        30.10R
ROCHESTER/MAYO FAIR      64  57  78 CALM      30.10R
WINONA         PTSUNNY   63  55  77 SE9       30.08S
AUSTIN         PTSUNNY   64  59  82 E3        30.09R
ALBERT LEA     SUNNY     64  59  82 E6        30.09R
DODGE CENTER   MOSUNNY   64  57  77 SE5       30.09R
PRESTON        MOSUNNY   62  56  80 E5        30.09R
OWATONNA       SUNNY     66  61  82 E3        30.09R
FARIBAULT      SUNNY     66  61  82 E3        30.09R
$$

...ELSEWHERE IN MINNESOTA...


CITY           SKY/WX    TMP DP  RH WIND       PRES   REMARKS
MINNEAPOLIS    SUNNY     66  58  75 E3        30.08R
INTNL FALLS    SUNNY     68  56  65 S7        30.07R
DULUTH         FOG       58  58 100 SE7       30.10S VSB 1
RED WING       SUNNY     66  55  68 SE7       30.08R
REDWOOD FALLS  SUNNY     65  59  81 SE8       30.06F
MANKATO        MOSUNNY   65  59  81 E6        30.08S
WORTHINGTON    SUNNY     66  60  81 SE6       30.07R
FAIRMONT       SUNNY     65  60  84 E6        30.07F
$$

...SOUTHWEST WISCONSIN...


CITY           SKY/WX    TMP DP  RH WIND       PRES   REMARKS
LA CROSSE      CLOUDY    64  56  75 NE7       30.09R
PRAIRIE DU CHI PTSUNNY   64  56  74 NE6       30.07R
BOSCOBEL       MOSUNNY   68  57  68 E5        30.08R
LONE ROCK      NOT AVBL
PLATTEVILLE    SUNNY     65  61  88 NE9       30.06R
FORT MC COY    CLOUDY    61  55  81 E8        30.10R
MAUSTON-NEW LI CLOUDY    63  57  80 E3        30.08R
VIROQUA        CLOUDY    60  57  92 CALM      30.09R
WIS DELLS      CLOUDY    63  55  76 NE6       30.08R
$$

...ELSEWHERE IN WISCONSIN...


CITY           SKY/WX    TMP DP  RH WIND       PRES   REMARKS
MILWAUKEE      PTSUNNY   68  56  65 N14G21    30.03R
MADISON        CLOUDY    64  57  78 NE12      30.06R
GREEN BAY      PTSUNNY   64  58  80 N9        30.09R
EAU CLAIRE     NOT AVBL
BLACK RVR FLS  CLOUDY    63  54  73 CALM      30.10R
MEDFORD        CLOUDY    56  53  89 E5        30.12R
WAUSAU         MOSUNNY   61  53  75 MISG      30.10S
WIS RAPIDS     CLOUDY    64  55  72 NE7       30.10R
MARSHFIELD     PTSUNNY   63  54  72 E7        30.09S
RICE LAKE      MOSUNNY   57  56  98 E9        30.13R
$$

...NORTHEAST IOWA...


CITY           SKY/WX    TMP DP  RH WIND       PRES   REMARKS
WATERLOO       PTSUNNY   66  60  81 E7        30.05R
DUBUQUE        CLOUDY    65  59  81 NE9       30.06R
DECORAH        PTSUNNY   63  59  88 E9G15     30.07R
MASON CITY     SUNNY     65  60  84 E6        30.09S
CHARLES CITY   MOSUNNY   64  61  88 E9        30.08R
OELWEIN          N/A    N/A N/A N/A MISG        N/A
$$

...ELSEWHERE IN IOWA...


CITY           SKY/WX    TMP DP  RH WIND       PRES   REMARKS
DES MOINES     MOSUNNY   71  61  70 NE3       30.04R
IOWA CITY      CLOUDY    71  64  78 NE7       30.04R
FORT DODGE     SUNNY     66  59  77 E7        30.08S
MARSHALLTOWN   MOSUNNY   66  62  87 NE5       30.05R
CEDAR RAPIDS   PTSUNNY   67  65  93 NE9       30.04R
$$

...NORTHERN ILLINOIS...


CITY           SKY/WX    TMP DP  RH WIND       PRES   REMARKS
CHICAGO-OHARE  PTSUNNY   69  60  73 N14       30.01R
CHICAGO-MIDWAY PTSUNNY   70  60  70 N13       30.00R
MOLINE         CLOUDY    70  63  78 E9        30.02R
ROCKFORD       PTSUNNY   69  59  70 E10       30.05R
PEORIA         CLOUDY    71  66  84 E10       30.01R
$$

NOTE: "FAIR" INDICATES FEW OR NO CLOUDS BELOW 12,000 FEET WITH NO
SIGNIFICANT WEATHER AND/OR OBSTRUCTIONS TO VISIBILITY. WIND
SPEEDS ARE IN MILES-PER-HOUR.




USA.gov is the U.S. government's official web portal to all federal, state and local government web resources and services.